Date String (YYYY-MM-DD hh:mm:ss) UTC,Instrument flags,Ambient pressure (hPa),Sample flow (lpm),Bypass flow (lpm),Sample temperature (°C),Ambient temperature (°C),ASC tube jacket temperature (°C),LED temperature (°C),Box temperature (°C),Sample RH (%),Span deviation,Mass concentration (μg/m³),Mass concentration (μg/m³),Mass concentration (μg/m³)
DateTimeUTC,F1_M11,P_M11,Q1_M11,Q2_M11,T1_M11,T2_M11,T3_M11,T4_M11,T5_M11,U1_M11,ZSPAN_M11,X2_M11,X0_M11,X1_M11
2023-04-04 22:00:00,,0817.4,5.00,0.00,23.8,22.4,00.0,32.2,25.2,10.2,0000.0,0001.76,0003.65,0001.62
2023-04-04 22:01:00,,0817.4,5.00,0.00,23.7,22.3,00.0,32.1,25.1,10.2,0000.0,0001.79,0003.69,0001.62
2023-04-04 22:02:00,,0817.4,5.01,0.00,23.7,22.1,00.0,32.1,25.1,10.2,0000.0,0001.78,0003.70,0001.61
2023-04-04 22:03:00,,0817.3,5.00,0.00,23.8,22.5,00.0,32.1,25.4,10.3,0000.0,0001.77,0003.41,0001.60
2023-04-04 22:04:00,,0817.4,4.99,0.00,23.9,23.4,00.0,32.1,25.7,10.4,0000.0,0001.77,0003.36,0001.61
2023-04-04 22:05:00,,0817.5,4.99,0.00,24.0,23.8,00.0,32.1,25.8,10.4,0000.0,0001.79,0003.39,0001.62
2023-04-04 22:06:00,,0817.5,4.99,0.00,24.0,23.6,00.0,32.2,25.6,10.3,0000.0,0001.83,0003.47,0001.63
2023-04-04 22:07:00,,0817.5,5.00,0.00,23.9,23.3,00.0,32.2,25.5,10.3,0000.0,0001.84,0003.10,0001.64
2023-04-04 22:08:00,,0817.5,5.01,0.00,23.9,23.0,00.0,32.2,25.4,10.3,0000.0,0001.85,0002.29,0001.64
2023-04-04 22:09:00,,0817.5,4.99,0.00,23.9,22.7,00.0,32.2,25.3,10.6,0000.0,0001.86,0002.28,0001.65
2023-04-04 22:10:00,,0817.5,5.01,0.00,23.9,22.5,00.0,32.2,25.2,10.7,0000.0,0001.87,0002.28,0001.66
2023-04-04 22:11:00,,0817.5,5.00,0.00,23.9,22.3,00.0,32.2,25.2,10.6,0000.0,0001.88,0002.28,0001.67
2023-04-04 22:12:00,,0817.6,4.99,0.00,23.9,22.6,00.0,32.2,25.4,10.5,0000.0,0001.88,0002.27,0001.70
2023-04-04 22:13:00,,0817.6,5.01,0.00,24.0,23.5,00.0,32.1,25.8,10.5,0000.0,0001.91,0002.56,0001.74
2023-04-04 22:14:00,,0817.6,5.00,0.00,24.1,24.0,00.0,32.2,25.9,10.6,0000.0,0001.93,0002.61,0001.76
2023-04-04 22:15:00,,0817.7,4.99,0.00,24.1,23.7,00.0,32.2,25.7,10.6,0000.0,0001.98,0002.75,0001.78
2023-04-04 22:16:00,,0817.7,5.02,0.00,24.0,23.5,00.0,32.3,25.6,10.7,0000.0,0001.99,0002.92,0001.80
2023-04-04 22:17:00,,0817.8,5.00,0.00,24.0,23.2,00.0,32.3,25.5,10.6,0000.0,0002.00,0003.04,0001.82
2023-04-04 22:18:00,,0817.8,4.99,0.00,24.0,22.9,00.0,32.3,25.5,10.4,0000.0,0002.05,0003.10,0001.85
2023-04-04 22:19:00,,0817.8,5.01,0.00,23.9,22.7,00.0,32.3,25.4,10.3,0000.0,0002.11,0003.15,0001.89
2023-04-04 22:20:00,,0817.7,5.00,0.00,23.9,22.4,00.0,32.3,25.3,10.4,0000.0,0002.15,0003.20,0001.93
2023-04-04 22:21:00,,0817.8,4.99,0.00,23.9,22.2,00.0,32.3,25.2,10.5,0000.0,0002.17,0003.17,0001.98
2023-04-04 22:22:00,,0817.8,5.01,0.00,23.9,22.4,00.0,32.2,25.4,10.5,0000.0,0002.20,0003.15,0002.02
2023-04-04 22:23:00,,0817.9,5.01,0.00,24.0,23.3,00.0,32.2,25.8,10.4,0000.0,0002.24,0003.17,0002.07
2023-04-04 22:24:00,,0817.9,4.99,0.00,24.1,23.9,00.0,32.2,26.0,10.2,0000.0,0002.30,0002.91,0002.13
2023-04-04 22:25:00,,0817.9,5.00,0.00,24.1,23.8,00.0,32.3,25.8,10.2,0000.0,0002.38,0002.95,0002.22
2023-04-04 22:26:00,,0817.8,5.00,0.00,24.1,23.5,00.0,32.3,25.6,10.2,0000.0,0002.46,0002.99,0002.30
2023-04-04 22:27:00,,0817.9,5.01,0.00,24.0,23.2,00.0,32.3,25.5,10.3,0000.0,0002.56,0002.94,0002.40
2023-04-04 22:28:00,,0817.9,5.00,0.00,24.0,22.9,00.0,32.3,25.5,10.3,0000.0,0002.66,0002.84,0002.51
2023-04-04 22:29:00,,0817.9,4.98,0.00,24.0,22.6,00.0,32.3,25.4,10.2,0000.0,0002.74,0002.87,0002.62
2023-04-04 22:30:00,,0817.9,4.99,0.00,23.9,22.4,00.0,32.3,25.3,10.1,0000.0,0002.86,0003.02,0002.74
2023-04-04 22:31:00,,0818.0,5.01,0.00,23.9,22.5,00.0,32.3,25.4,10.1,0000.0,0002.97,0003.12,0002.85
2023-04-04 22:32:00,,0818.0,5.00,0.00,24.0,23.4,00.0,32.3,25.8,10.1,0000.0,0003.07,0003.21,0002.93
2023-04-04 22:33:00,,0818.0,5.00,0.00,24.1,24.0,00.0,32.3,26.0,10.0,0000.0,0003.16,0003.41,0003.04
2023-04-04 22:34:00,,0818.0,4.99,0.00,24.2,23.9,00.0,32.3,25.9,10.0,0000.0,0003.22,0003.54,0003.12
2023-04-04 22:35:00,,0818.0,5.00,0.00,24.1,23.6,00.0,32.4,25.7,10.0,0000.0,0003.26,0003.66,0003.17
2023-04-04 22:36:00,,0818.0,4.99,0.00,24.1,23.3,00.0,32.4,25.6,10.2,0000.0,0003.30,0003.79,0003.20
2023-04-04 22:37:00,,0818.1,5.00,0.00,24.1,23.0,00.0,32.4,25.5,10.3,0000.0,0003.35,0003.80,0003.24
2023-04-04 22:38:00,,0818.1,5.00,0.00,24.0,22.7,00.0,32.4,25.5,10.3,0000.0,0003.38,0003.84,0003.28
2023-04-04 22:39:00,,0818.1,5.00,0.00,24.0,22.5,00.0,32.4,25.4,10.2,0000.0,0003.42,0004.66,0003.32
2023-04-04 22:40:00,,0818.1,4.99,0.00,23.9,22.3,00.0,32.4,25.3,10.3,0000.0,0003.46,0005.43,0003.35
2023-04-04 22:41:00,,0818.2,5.00,0.00,24.0,22.7,00.0,32.3,25.6,10.2,0000.0,0003.49,0005.48,0003.38
2023-04-04 22:42:00,,0818.3,5.02,0.00,24.1,23.7,00.0,32.3,26.0,10.0,0000.0,0003.51,0005.49,0003.42
2023-04-04 22:43:00,,0818.3,4.99,0.00,24.2,24.3,00.0,32.3,26.2,10.1,0000.0,0003.55,0005.60,0003.45
2023-04-04 22:44:00,,0818.3,4.99,0.00,24.2,24.2,00.0,32.4,26.0,10.1,0000.0,0003.57,0005.59,0003.48
2023-04-04 22:45:00,,0818.3,5.02,0.00,24.2,23.8,00.0,32.4,25.8,10.1,0000.0,0003.60,0005.69,0003.51
2023-04-04 22:46:00,,0818.3,5.00,0.00,24.2,23.5,00.0,32.5,25.7,10.1,0000.0,0003.65,0005.84,0003.53
2023-04-04 22:47:00,,0818.3,4.99,0.00,24.1,23.2,00.0,32.5,25.6,10.1,0000.0,0003.67,0005.86,0003.55
2023-04-04 22:48:00,,0818.3,5.01,0.00,24.1,22.9,00.0,32.5,25.5,10.1,0000.0,0003.68,0005.97,0003.56
2023-04-04 22:49:00,,0818.3,5.01,0.00,24.1,22.7,00.0,32.5,25.5,10.1,0000.0,0003.69,0006.10,0003.56
2023-04-04 22:50:00,,0818.3,4.99,0.00,24.0,22.4,00.0,32.4,25.4,10.0,0000.0,0003.69,0005.63,0003.57
2023-04-04 22:51:00,,0818.3,5.00,0.00,24.0,22.3,00.0,32.4,25.4,09.9,0000.0,0003.71,0005.00,0003.58
2023-04-04 22:52:00,,0818.4,5.01,0.00,24.1,23.0,00.0,32.4,25.8,10.0,0000.0,0003.71,0005.23,0003.57
2023-04-04 22:53:00,,0818.4,5.00,0.00,24.2,24.0,00.0,32.3,26.1,09.9,0000.0,0003.73,0005.53,0003.56
2023-04-04 22:54:00,,0818.5,4.99,0.00,24.3,24.4,00.0,32.4,26.2,10.0,0000.0,0003.72,0005.71,0003.56
2023-04-04 22:55:00,,0818.5,4.99,0.00,24.3,24.1,00.0,32.5,26.0,10.1,0000.0,0003.72,0005.82,0003.54
2023-04-04 22:56:00,,0818.5,5.01,0.00,24.2,23.7,00.0,32.5,25.8,09.9,0000.0,0003.72,0005.86,0003.53
2023-04-04 22:57:00,,0818.5,5.00,0.00,24.2,23.4,00.0,32.5,25.7,10.2,0000.0,0003.70,0005.72,0003.53
2023-04-04 22:58:00,,0818.5,5.01,0.00,24.2,23.1,00.0,32.5,25.6,10.4,0000.0,0003.68,0005.69,0003.51
2023-04-04 22:59:00,,0818.5,5.00,0.00,24.1,22.8,00.0,32.5,25.5,10.5,0000.0,,,
